2023/01/05 00:00:00,51.3, 0.4
2023/01/05 00:10:00,51.3, 0.6
2023/01/05 00:20:00,51.3,-0.1
2023/01/05 00:30:00,51.3,-0.2
2023/01/05 00:40:00,51.3,-0.6
2023/01/05 00:50:00,51.3,-0.6
2023/01/05 01:00:00,51.4,-0.5
2023/01/05 01:10:00,51.3,-0.3
2023/01/05 01:20:00,51.1,-0.1
2023/01/05 01:30:00,51.1,-0.1
2023/01/05 01:40:00,51.4,-0.1
2023/01/05 01:50:00,51.6, 0.0
2023/01/05 02:00:00,51.8, 0.4
2023/01/05 02:10:00,52.0, 0.1
2023/01/05 02:20:00,52.3, 0.2
2023/01/05 02:30:00,52.7,-0.1
2023/01/05 02:40:00,53.5, 0.3
2023/01/05 02:50:00,53.5, 0.4
2023/01/05 03:00:00,53.8, 0.4
2023/01/05 03:10:00,54.2, 0.3
2023/01/05 03:20:00,54.1, 0.7
2023/01/05 03:30:00,54.0, 0.6
2023/01/05 03:40:00,54.3, 0.5
2023/01/05 03:50:00,54.5, 0.4
2023/01/05 04:00:00,54.6, 0.5
2023/01/05 04:10:00,54.6, 0.5
2023/01/05 04:20:00,54.8, 0.6
2023/01/05 04:30:00,55.1, 0.6
2023/01/05 04:40:00,55.8, 0.6
2023/01/05 04:50:00,55.8, 0.6
2023/01/05 05:00:00,56.3, 0.6
2023/01/05 05:10:00,56.9, 0.7
2023/01/05 05:20:00,56.9, 0.5
2023/01/05 05:30:00,56.7, 0.5
2023/01/05 05:40:00,56.6, 0.6
2023/01/05 05:50:00,56.5, 0.8
2023/01/05 06:00:00,56.5, 0.4
2023/01/05 06:10:00,56.4, 0.6
2023/01/05 06:20:00,56.4, 0.6
2023/01/05 06:30:00,56.7, 0.9
2023/01/05 06:40:00,56.9, 0.5
2023/01/05 06:50:00,57.0, 0.7
2023/01/05 07:00:00,57.2, 0.6
2023/01/05 07:10:00,57.5, 0.7
2023/01/05 07:20:00,57.9, 0.4
2023/01/05 07:30:00,58.2, 0.6
2023/01/05 07:40:00,58.4, 0.7
2023/01/05 07:50:00,58.2, 0.8
2023/01/05 08:00:00,58.1, 1.1
2023/01/05 08:10:00,57.9, 0.7
2023/01/05 08:20:00,58.2, 0.6
2023/01/05 08:30:00,58.8, 0.9
2023/01/05 08:40:00,59.1, 0.7
2023/01/05 08:50:00,59.3, 0.8
2023/01/05 09:00:00,59.8, 0.8
2023/01/05 09:10:00,60.1, 0.9
2023/01/05 09:20:00,60.3, 1.0
2023/01/05 09:30:00,60.3, 1.5
2023/01/05 09:40:00,60.1, 2.1
2023/01/05 09:50:00,60.0, 2.0
2023/01/05 10:00:00,60.0, 1.9
2023/01/05 10:10:00,59.7, 2.4
2023/01/05 10:20:00,59.6, 2.4
2023/01/05 10:30:00,59.4, 4.9
2023/01/05 10:40:00,59.2, 5.2
2023/01/05 10:50:00,59.1, 3.8
2023/01/05 11:00:00,59.0, 3.7
2023/01/05 11:10:00,59.0, 3.4
2023/01/05 11:20:00,58.8, 3.2
2023/01/05 11:30:00,58.8, 2.5
2023/01/05 11:40:00,59.1, 2.4
2023/01/05 11:50:00,59.0, 3.4
2023/01/05 12:00:00,58.7, 4.3
2023/01/05 12:10:00,58.6, 3.8
2023/01/05 12:20:00,58.6, 3.1
2023/01/05 12:30:00,58.3, 3.2
2023/01/05 12:40:00,58.3, 2.6
2023/01/05 12:50:00,58.6, 2.1
2023/01/05 13:00:00,58.8, 2.1
2023/01/05 13:10:00,58.7, 2.5
2023/01/05 13:20:00,58.7, 2.0
2023/01/05 13:30:00,58.6, 1.8
2023/01/05 13:40:00,58.4, 1.8
2023/01/05 13:50:00,58.3, 1.3
2023/01/05 14:00:00,58.6, 1.4
2023/01/05 14:10:00,59.2, 1.0
2023/01/05 14:20:00,59.4, 1.0
2023/01/05 14:30:00,59.6, 1.6
2023/01/05 14:40:00,59.4, 2.3
2023/01/05 14:50:00,59.0, 2.7
2023/01/05 15:00:00,58.9, 2.6
2023/01/05 15:10:00,58.8, 2.6
2023/01/05 15:20:00,58.7, 2.6
2023/01/05 15:30:00,58.7, 2.4
2023/01/05 15:40:00,58.6, 1.6
2023/01/05 15:50:00,58.4, 2.3
2023/01/05 16:00:00,58.5, 6.7
2023/01/05 16:10:00,58.4, 3.7
2023/01/05 16:20:00,58.3, 2.7
2023/01/05 16:30:00,58.4, 2.1
2023/01/05 16:40:00,58.3, 1.4
2023/01/05 16:50:00,58.2, 1.2
2023/01/05 17:00:00,58.2, 1.0
2023/01/05 17:10:00,58.1, 1.0
2023/01/05 17:20:00,57.8, 1.1
2023/01/05 17:30:00,57.7, 0.6
2023/01/05 17:40:00,57.6, 0.6
2023/01/05 17:50:00,57.5, 0.7
2023/01/05 18:00:00,57.5, 0.6
2023/01/05 18:10:00,56.6, 0.6
2023/01/05 18:20:00,53.4, 0.7
2023/01/05 18:30:00,53.2, 0.8
2023/01/05 18:40:00,53.4, 0.6
2023/01/05 18:50:00,54.0, 0.6
2023/01/05 19:00:00,53.9, 0.6
2023/01/05 19:10:00,53.8, 0.6
2023/01/05 19:20:00,53.7, 0.8
2023/01/05 19:30:00,53.6, 0.7
2023/01/05 19:40:00,53.5, 0.5
2023/01/05 19:50:00,53.3, 1.0
2023/01/05 20:00:00,53.5, 0.9
2023/01/05 20:10:00,53.1, 0.9
2023/01/05 20:20:00,53.2, 0.9
2023/01/05 20:30:00,53.3, 1.0
2023/01/05 20:40:00,53.6, 0.9
2023/01/05 20:50:00,53.6, 0.9
2023/01/05 21:00:00,54.0, 0.7
2023/01/05 21:10:00,54.1, 0.7
2023/01/05 21:20:00,53.9, 1.0
2023/01/05 21:30:00,53.8, 0.8
2023/01/05 21:40:00,53.8, 0.8
2023/01/05 21:50:00,53.7, 0.6
2023/01/05 22:00:00,53.7, 0.7
2023/01/05 22:10:00,53.7, 0.6
2023/01/05 22:20:00,53.7, 0.4
2023/01/05 22:30:00,53.7, 0.3
2023/01/05 22:40:00,53.8, 0.3
2023/01/05 22:50:00,53.8, 0.2
2023/01/05 23:00:00,53.8, 0.1
2023/01/05 23:10:00,53.9, 0.3
2023/01/05 23:20:00,54.0, 0.6
2023/01/05 23:30:00,54.0, 0.6
2023/01/05 23:40:00,53.9, 0.6
2023/01/05 23:50:00,54.0, 0.5
